Home   Weather   Charlotte   Past weeks

Flag for USA Past Weather in Charlotte, North Carolina, USA — Yesterday and Last 2 Weeks

65 °F

Passing clouds.

Feels Like: 65 °F
Forecast: 56 / 76 °F
Wind: 8 mph from Southwest

Location: Charlotte / Douglas International Airport

Current Time: Oct 28, 2016 at 2:32:52 AM

Latest Report: Oct 28, 2016 at 1:52 AM

Visibility: 10 mi

Pressure: 30.18 "Hg

Humidity: 76%

Dew Point: 57 °F

Location of CharlotteLocation

Past Weather in Charlotte — Graph


Charlotte Temperature Yesterday

Maximum temperature yesterday: 75 °F (at 1:52 PM)
Minimum temperature yesterday: 48 °F (at 6:52 AM)
Average temperature yesterday: 63 °F

High & Low Weather Summary for the Past Weeks

High89 °F (Oct 19, 3:52 PM)97% (Oct 17, 5:52 AM)30.42 "Hg (Oct 17, 5:52 AM)
Low39 °F (Oct 26, 4:52 AM)24% (Oct 25, 3:52 PM)29.71 "Hg (Oct 21, 1:52 PM)
Average64 °F64%30.14 "Hg
* Reported Oct 13 12:52 AM — Oct 28 12:52 AM, Charlotte, Weather by CustomWeather, © 2016

Note: Actual official high and low records may vary slightly from our data, if they occured in-between our weather recording intervals... More about our weather records


Charlotte Weather History for the Previous 24 Hours

Scroll right to see more
Time TempWeatherWind HumidityBarometerVisibility
12:52 AM
Fri, Oct 28
65 °FPassing clouds.9 mph78%30.19 "Hg10 mi
11:52 PM
Thu, Oct 27
65 °FPassing clouds.8 mph78%30.20 "Hg10 mi
10:52 PM66 °FClear.8 mph75%30.20 "Hg10 mi
9:52 PM66 °FPassing clouds.7 mph75%30.20 "Hg10 mi
8:52 PM66 °FPassing clouds.7 mph78%30.21 "Hg10 mi
7:52 PM67 °FPassing clouds.6 mph76%30.21 "Hg10 mi
6:52 PM69 °FPassing clouds.6 mph70%30.20 "Hg10 mi
5:52 PM73 °FBroken clouds.12 mph62%30.18 "Hg10 mi
4:52 PM74 °FMostly cloudy.9 mph60%30.20 "Hg10 mi
3:52 PM75 °FBroken clouds.10 mph55%30.20 "Hg10 mi
2:52 PM74 °FMostly cloudy.14 mph57%30.22 "Hg10 mi
1:52 PM75 °FBroken clouds.13 mph55%30.24 "Hg10 mi
12:52 PM73 °FBroken clouds.14 mph59%30.28 "Hg10 mi
11:52 AM70 °FBroken clouds.12 mph66%30.31 "Hg10 mi
10:52 AM67 °FBroken clouds.8 mph68%30.31 "Hg10 mi
9:52 AM62 °FBroken clouds.12 mph78%30.32 "Hg10 mi
8:52 AM55 °FBroken clouds.3 mph83%30.32 "Hg10 mi
7:52 AM51 °FPartly sunny.No wind86%30.30 "Hg10 mi
6:52 AM48 °FPassing clouds.No wind86%30.31 "Hg10 mi
5:52 AM49 °FPassing clouds.3 mph86%30.30 "Hg10 mi
4:52 AM53 °FPassing clouds.No wind77%30.29 "Hg10 mi
3:52 AM54 °FPassing clouds.3 mph74%30.30 "Hg10 mi
2:52 AM53 °FPassing clouds.5 mph69%30.30 "Hg10 mi
Weather by CustomWeather, © 2016

See weather overviewHow to use our weather pages